カタログに戻る

ATLAS AGENA R/B

運用中MEO
NORAD 7964·ROCKET BODY·🇺🇸 United States

打ち上げ Jun 18, 1975 から Cape Canaveral Space Force Station

Loading…

次のパス (今後24時間)

TLE

最新Source: Space-Track

元期: Sep 14, 2026, 05:41 UTC

1 07964U 75055B   26257.23741690 -.00000023  00000-0  00000-0 0  9998
2 07964   9.4185 230.5966 1192972 148.4014 219.2030  1.02089476 27608

AllMySatでATLAS AGENA R/Bをリアルタイム追跡

Download on the App Store